2017-045C

Last updated on Tue Aug 15 2017 00:15:02 GMT+0000 (Coordinated Universal Time)

1 42906U 17045C 17226.70555325 -.00003588 11342-4 00000+0 0 9997 2 42906 51.6445 106.6960 0115811 47.6459 63.1220 15.97802207 03

Satellite not in orbit

2017-045C